LNI774 WIII-WAAA

Flight info

Callsign LNI774
Flight time 1h 56m
Altitude 37000
Route CA T5 BIMAK
Aircraft B739/M-SDE2E3FGHIRWXY/LB1

Departure

Time 2026-04-20 18:54
Airport Soekarno-Hatta International Airport (WIII)

Arrival

Time 2026-04-20 20:51
Airport Sultan Hasanuddin International Airport (WAAA)
Time Latitude Longitude Altitude Speed Heading
2026-04-20 18:41 -6.11551 106.66975 37 ft 0 kts 158°
2026-04-20 18:47 -6.11539 106.66970 37 ft 4 kts 153°
2026-04-20 18:48 -6.11515 106.66959 34 ft 4 kts 172°
2026-04-20 18:48 -6.11494 106.66957 35 ft 4 kts 178°
2026-04-20 18:48 -6.11467 106.66957 33 ft 4 kts 179°
2026-04-20 18:48 -6.11440 106.66957 34 ft 4 kts 181°
2026-04-20 18:49 -6.11414 106.66957 36 ft 2 kts 179°
2026-04-20 18:49 -6.11413 106.66957 36 ft 1 kts 179°
2026-04-20 18:51 -6.11414 106.66957 36 ft 1 kts 182°
2026-04-20 18:51 -6.11410 106.66943 33 ft 5 kts 323°
2026-04-20 18:51 -6.11363 106.66924 37 ft 8 kts 338°
2026-04-20 18:52 -6.11313 106.66905 37 ft 7 kts 339°
2026-04-20 18:52 -6.11263 106.66887 37 ft 9 kts 339°
2026-04-20 18:52 -6.11186 106.66855 36 ft 13 kts 337°
2026-04-20 18:52 -6.11107 106.66822 37 ft 12 kts 338°
2026-04-20 18:53 -6.11028 106.66791 37 ft 12 kts 339°
2026-04-20 18:53 -6.10965 106.66747 37 ft 12 kts 279°
2026-04-20 18:53 -6.11000 106.66642 38 ft 35 kts 248°
2026-04-20 18:53 -6.11180 106.66192 39 ft 102 kts 248°
2026-04-20 18:54 -6.11513 106.65357 38 ft 154 kts 248°
2026-04-20 18:54 -6.11950 106.64242 218 ft 181 kts 249°
2026-04-20 18:54 -6.12394 106.63066 896 ft 182 kts 249°
2026-04-20 18:54 -6.12812 106.61824 1328 ft 197 kts 261°
2026-04-20 18:55 -6.12515 106.60420 1528 ft 220 kts 299°
2026-04-20 18:55 -6.11403 106.59297 1730 ft 239 kts 338°
2026-04-20 18:55 -6.09730 106.59080 1998 ft 255 kts 13°
2026-04-20 18:55 -6.08122 106.59859 2514 ft 262 kts 44°
2026-04-20 18:56 -6.07051 106.61318 3318 ft 260 kts 63°
2026-04-20 18:56 -6.06254 106.62951 4086 ft 261 kts 66°
2026-04-20 18:56 -6.05497 106.64621 4836 ft 264 kts 66°
2026-04-20 18:56 -6.04728 106.66306 5559 ft 267 kts 66°
2026-04-20 18:57 -6.03938 106.68005 6265 ft 270 kts 65°
2026-04-20 18:57 -6.03126 106.69721 6933 ft 273 kts 65°
2026-04-20 18:57 -6.02298 106.71449 7599 ft 276 kts 65°
2026-04-20 18:57 -6.01457 106.73193 8272 ft 279 kts 64°
2026-04-20 18:58 -6.00604 106.74953 8936 ft 282 kts 64°
2026-04-20 18:58 -5.99740 106.76730 9586 ft 285 kts 64°
2026-04-20 18:58 -5.98861 106.78533 10159 ft 291 kts 64°
2026-04-20 18:58 -5.97940 106.80425 10307 ft 312 kts 64°
2026-04-20 18:59 -5.97044 106.82480 10447 ft 331 kts 75°
2026-04-20 18:59 -5.96892 106.84834 10564 ft 349 kts 99°
2026-04-20 18:59 -5.97663 106.87179 10878 ft 359 kts 112°
2026-04-20 18:59 -5.98668 106.89490 11382 ft 363 kts 113°
2026-04-20 19:00 -5.99694 106.91809 11940 ft 364 kts 113°
2026-04-20 19:00 -6.00720 106.94140 12476 ft 366 kts 113°
2026-04-20 19:00 -6.01747 106.96499 12979 ft 369 kts 112°
2026-04-20 19:00 -6.02771 106.98874 13491 ft 372 kts 112°
2026-04-20 19:01 -6.03795 107.01268 13959 ft 374 kts 112°
2026-04-20 19:01 -6.04824 107.03681 14383 ft 377 kts 112°
2026-04-20 19:01 -6.05859 107.06116 14787 ft 380 kts 112°
2026-04-20 19:01 -6.06902 107.08570 15212 ft 383 kts 112°
2026-04-20 19:02 -6.07937 107.11009 15619 ft 386 kts 112°
2026-04-20 19:02 -6.08995 107.13499 16020 ft 389 kts 112°
2026-04-20 19:02 -6.10074 107.16040 16420 ft 392 kts 112°
2026-04-20 19:02 -6.11146 107.18566 16821 ft 395 kts 112°
2026-04-20 19:03 -6.12226 107.21109 17195 ft 397 kts 112°
2026-04-20 19:03 -6.13299 107.23637 17582 ft 400 kts 112°
2026-04-20 19:03 -6.14393 107.26216 17954 ft 403 kts 112°
2026-04-20 19:03 -6.15494 107.28814 18293 ft 405 kts 112°
2026-04-20 19:04 -6.16602 107.31429 18604 ft 408 kts 112°
2026-04-20 19:04 -6.17714 107.34058 18905 ft 410 kts 112°
2026-04-20 19:04 -6.18833 107.36704 19206 ft 413 kts 112°
2026-04-20 19:04 -6.19960 107.39367 19494 ft 415 kts 112°
2026-04-20 19:05 -6.21092 107.42045 19795 ft 418 kts 112°
2026-04-20 19:05 -6.22231 107.44736 20088 ft 420 kts 112°
2026-04-20 19:05 -6.23377 107.47446 20368 ft 422 kts 112°
2026-04-20 19:05 -6.24528 107.50170 20643 ft 425 kts 112°
2026-04-20 19:06 -6.25686 107.52908 20909 ft 427 kts 112°
2026-04-20 19:06 -6.26850 107.55664 21175 ft 429 kts 112°
2026-04-20 19:06 -6.28019 107.58430 21434 ft 431 kts 112°
2026-04-20 19:06 -6.29195 107.61212 21689 ft 434 kts 112°
2026-04-20 19:07 -6.30377 107.64012 21929 ft 436 kts 112°
2026-04-20 19:07 -6.31564 107.66821 22181 ft 438 kts 112°
2026-04-20 19:07 -6.32756 107.69643 22414 ft 440 kts 112°
2026-04-20 19:07 -6.33953 107.72479 22645 ft 442 kts 112°
2026-04-20 19:08 -6.35156 107.75330 22866 ft 444 kts 112°
2026-04-20 19:08 -6.37578 107.81069 23322 ft 448 kts 112°
2026-04-20 19:08 -6.38795 107.83954 23528 ft 449 kts 112°
2026-04-20 19:09 -6.40017 107.86850 23698 ft 451 kts 112°
2026-04-20 19:09 -6.41244 107.89760 23876 ft 452 kts 112°
2026-04-20 19:09 -6.42473 107.92675 24064 ft 453 kts 112°
2026-04-20 19:09 -6.43703 107.95594 24240 ft 455 kts 112°
2026-04-20 19:10 -6.44940 107.98529 24421 ft 456 kts 112°
2026-04-20 19:10 -6.46180 108.01468 24587 ft 457 kts 112°
2026-04-20 19:10 -6.47439 108.04406 24751 ft 459 kts 113°
2026-04-20 19:10 -6.48717 108.07350 24920 ft 460 kts 113°
2026-04-20 19:11 -6.50002 108.10297 25083 ft 461 kts 113°
2026-04-20 19:11 -6.51292 108.13256 25257 ft 462 kts 113°
2026-04-20 19:11 -6.52583 108.16224 25405 ft 464 kts 113°
2026-04-20 19:11 -6.53875 108.19200 25561 ft 465 kts 113°
2026-04-20 19:12 -6.55168 108.22182 25715 ft 466 kts 113°
2026-04-20 19:12 -6.56465 108.25176 25872 ft 467 kts 113°
2026-04-20 19:12 -6.57764 108.28176 26016 ft 469 kts 113°
2026-04-20 19:12 -6.59066 108.31183 26163 ft 470 kts 113°
2026-04-20 19:13 -6.60370 108.34195 26311 ft 471 kts 113°
2026-04-20 19:13 -6.61679 108.37220 26452 ft 472 kts 113°
2026-04-20 19:13 -6.62988 108.40246 26600 ft 473 kts 113°
2026-04-20 19:13 -6.64301 108.43282 26751 ft 474 kts 113°
2026-04-20 19:14 -6.65619 108.46328 26897 ft 474 kts 113°
2026-04-20 19:14 -6.66923 108.49342 27262 ft 466 kts 113°
2026-04-20 19:14 -6.68179 108.52324 27614 ft 460 kts 109°
2026-04-20 19:14 -6.69004 108.55406 27966 ft 455 kts 98°
2026-04-20 19:15 -6.69328 108.58551 28336 ft 450 kts 90°
2026-04-20 19:15 -6.69178 108.61679 28698 ft 446 kts 82°
2026-04-20 19:15 -6.68771 108.64758 29092 ft 443 kts 81°
2026-04-20 19:15 -6.68340 108.67812 29470 ft 440 kts 81°
2026-04-20 19:16 -6.67908 108.70852 29858 ft 438 kts 81°
2026-04-20 19:16 -6.67484 108.73878 30188 ft 435 kts 81°
2026-04-20 19:16 -6.67073 108.76886 30521 ft 433 kts 81°
2026-04-20 19:16 -6.66677 108.79833 30854 ft 430 kts 81°
2026-04-20 19:17 -6.66281 108.82809 31195 ft 428 kts 81°
2026-04-20 19:17 -6.65891 108.85768 31531 ft 425 kts 81°
2026-04-20 19:17 -6.65505 108.88710 31879 ft 423 kts 81°
2026-04-20 19:17 -6.65121 108.91632 32232 ft 420 kts 81°
2026-04-20 19:18 -6.64739 108.94537 32544 ft 419 kts 81°
2026-04-20 19:18 -6.64357 108.97438 32832 ft 418 kts 81°
2026-04-20 19:18 -6.63977 109.00328 33101 ft 417 kts 81°
2026-04-20 19:18 -6.63596 109.03218 33344 ft 417 kts 81°
2026-04-20 19:19 -6.63214 109.06111 33543 ft 418 kts 81°
2026-04-20 19:19 -6.62831 109.09009 33746 ft 418 kts 81°
2026-04-20 19:19 -6.62447 109.11918 33874 ft 421 kts 81°
2026-04-20 19:19 -6.62060 109.14845 33992 ft 423 kts 80°
2026-04-20 19:20 -6.61671 109.17788 34110 ft 425 kts 80°
2026-04-20 19:20 -6.61280 109.20744 34222 ft 427 kts 80°
2026-04-20 19:20 -6.60888 109.23712 34338 ft 429 kts 81°
2026-04-20 19:20 -6.60493 109.26695 34452 ft 431 kts 81°
2026-04-20 19:21 -6.60097 109.29692 34571 ft 433 kts 81°
2026-04-20 19:21 -6.59699 109.32698 34688 ft 435 kts 81°
2026-04-20 19:21 -6.59434 109.34696 34765 ft 436 kts 81°
2026-04-20 19:22 -6.58629 109.40768 34839 ft 440 kts 81°
2026-04-20 19:22 -6.57817 109.46890 34858 ft 444 kts 80°
2026-04-20 19:23 -6.56996 109.53072 34858 ft 449 kts 80°
2026-04-20 19:23 -6.56164 109.59327 34855 ft 453 kts 80°
2026-04-20 19:24 -6.55323 109.65644 34856 ft 458 kts 80°
2026-04-20 19:24 -6.54475 109.72017 34853 ft 462 kts 80°
2026-04-20 19:25 -6.53617 109.78449 34850 ft 466 kts 80°
2026-04-20 19:25 -6.52754 109.84918 34852 ft 468 kts 80°
2026-04-20 19:26 -6.51885 109.91424 34842 ft 470 kts 80°
2026-04-20 19:26 -6.51015 109.97936 34839 ft 470 kts 80°
2026-04-20 19:27 -6.50146 110.04433 34841 ft 468 kts 80°
2026-04-20 19:27 -6.49278 110.10913 34838 ft 467 kts 80°
2026-04-20 19:28 -6.48413 110.17365 34840 ft 465 kts 80°
2026-04-20 19:28 -6.47550 110.23794 34837 ft 463 kts 80°
2026-04-20 19:29 -6.46690 110.30192 34842 ft 461 kts 80°
2026-04-20 19:29 -6.45832 110.36575 34839 ft 460 kts 80°
2026-04-20 19:30 -6.44988 110.42901 34842 ft 459 kts 80°
2026-04-20 19:30 -6.44151 110.49265 34845 ft 459 kts 80°
2026-04-20 19:31 -6.43314 110.55629 34847 ft 459 kts 80°
2026-04-20 19:31 -6.42474 110.62000 34848 ft 460 kts 80°
2026-04-20 19:32 -6.41630 110.68389 34848 ft 462 kts 80°
2026-04-20 19:32 -6.40783 110.74791 34850 ft 463 kts 80°
2026-04-20 19:33 -6.39933 110.81211 34845 ft 464 kts 80°
2026-04-20 19:33 -6.39082 110.87636 34848 ft 464 kts 80°
2026-04-20 19:34 -6.38229 110.94066 34847 ft 464 kts 80°
2026-04-20 19:34 -6.37376 111.00492 34845 ft 463 kts 80°
2026-04-20 19:35 -6.36524 111.06908 34843 ft 463 kts 80°
2026-04-20 19:35 -6.35672 111.13313 34839 ft 462 kts 80°
2026-04-20 19:36 -6.34825 111.19712 34840 ft 461 kts 81°
2026-04-20 19:36 -6.33981 111.26092 34837 ft 460 kts 80°
2026-04-20 19:37 -6.33137 111.32462 34837 ft 459 kts 80°
2026-04-20 19:37 -6.32294 111.38822 34839 ft 459 kts 80°
2026-04-20 19:38 -6.31450 111.45175 34833 ft 458 kts 80°
2026-04-20 19:38 -6.30607 111.51520 34835 ft 458 kts 80°
2026-04-20 19:39 -6.29763 111.57868 34834 ft 458 kts 80°
2026-04-20 19:39 -6.28918 111.64214 34838 ft 458 kts 80°
2026-04-20 19:40 -6.28077 111.70522 34836 ft 459 kts 80°
2026-04-20 19:40 -6.27229 111.76882 34837 ft 459 kts 80°
2026-04-20 19:41 -6.26378 111.83248 34839 ft 460 kts 81°
2026-04-20 19:41 -6.25512 111.89619 34832 ft 460 kts 81°
2026-04-20 19:42 -6.24641 111.95989 34831 ft 460 kts 81°
2026-04-20 19:42 -6.23771 112.02359 34834 ft 460 kts 81°
2026-04-20 19:43 -6.22902 112.08725 34835 ft 460 kts 81°
2026-04-20 19:43 -6.22033 112.15085 34834 ft 459 kts 81°
2026-04-20 19:44 -6.21164 112.21442 34831 ft 459 kts 81°
2026-04-20 19:44 -6.20295 112.27790 34832 ft 458 kts 81°
2026-04-20 19:45 -6.19427 112.34130 34832 ft 457 kts 81°
2026-04-20 19:45 -6.18560 112.40457 34832 ft 457 kts 81°
2026-04-20 19:46 -6.17693 112.46774 34833 ft 456 kts 81°
2026-04-20 19:46 -6.16826 112.53085 34833 ft 456 kts 81°
2026-04-20 19:47 -6.15960 112.59388 34830 ft 455 kts 81°
2026-04-20 19:47 -6.15099 112.65642 34830 ft 455 kts 81°
2026-04-20 19:48 -6.14233 112.71936 34830 ft 454 kts 81°
2026-04-20 19:48 -6.13367 112.78222 34830 ft 454 kts 81°
2026-04-20 19:49 -6.12499 112.84513 34830 ft 454 kts 81°
2026-04-20 19:49 -6.11630 112.90805 34828 ft 455 kts 81°
2026-04-20 19:50 -6.10761 112.97097 34825 ft 455 kts 81°
2026-04-20 19:50 -6.09890 113.03392 34829 ft 455 kts 81°
2026-04-20 19:51 -6.09018 113.09689 34826 ft 455 kts 81°
2026-04-20 19:51 -6.08145 113.15992 34830 ft 456 kts 81°
2026-04-20 19:52 -6.07271 113.22297 34832 ft 456 kts 81°
2026-04-20 19:52 -6.06401 113.28563 34829 ft 456 kts 81°
2026-04-20 19:53 -6.05525 113.34873 34829 ft 456 kts 81°
2026-04-20 19:53 -6.04648 113.41178 34831 ft 456 kts 81°
2026-04-20 19:54 -6.03771 113.47486 34833 ft 456 kts 81°
2026-04-20 19:54 -6.02893 113.53789 34829 ft 456 kts 81°
2026-04-20 19:55 -6.02014 113.60093 34826 ft 455 kts 81°
2026-04-20 19:55 -6.01136 113.66387 34828 ft 455 kts 81°
2026-04-20 19:56 -6.00406 113.71617 34829 ft 455 kts 81°
2026-04-20 19:56 -5.99379 113.78969 34826 ft 455 kts 82°
2026-04-20 19:57 -5.98500 113.85255 34831 ft 454 kts 82°
2026-04-20 19:57 -5.97620 113.91541 34831 ft 454 kts 82°
2026-04-20 19:58 -5.96739 113.97829 34829 ft 454 kts 82°
2026-04-20 19:58 -5.95859 114.04113 34830 ft 454 kts 82°
2026-04-20 19:59 -5.94977 114.10397 34831 ft 454 kts 82°
2026-04-20 19:59 -5.94100 114.16642 34830 ft 455 kts 82°
2026-04-20 20:00 -5.93216 114.22930 34831 ft 455 kts 82°
2026-04-20 20:00 -5.92332 114.29216 34832 ft 455 kts 82°
2026-04-20 20:01 -5.91448 114.35503 34833 ft 455 kts 82°
2026-04-20 20:01 -5.90562 114.41794 34828 ft 455 kts 82°
2026-04-20 20:02 -5.89676 114.48084 34831 ft 455 kts 82°
2026-04-20 20:02 -5.88789 114.54372 34830 ft 455 kts 82°
2026-04-20 20:03 -5.87901 114.60663 34834 ft 455 kts 82°
2026-04-20 20:03 -5.87013 114.66953 34829 ft 455 kts 82°
2026-04-20 20:04 -5.86124 114.73240 34831 ft 455 kts 82°
2026-04-20 20:04 -5.85235 114.79524 34829 ft 454 kts 82°
2026-04-20 20:05 -5.84345 114.85807 34830 ft 454 kts 82°
2026-04-20 20:05 -5.83456 114.92083 34830 ft 454 kts 82°
2026-04-20 20:06 -5.82566 114.98356 34830 ft 454 kts 82°
2026-04-20 20:06 -5.81682 115.04585 34825 ft 454 kts 82°
2026-04-20 20:07 -5.80792 115.10853 34832 ft 453 kts 82°
2026-04-20 20:07 -5.79900 115.17122 34830 ft 454 kts 82°
2026-04-20 20:08 -5.79008 115.23394 34831 ft 454 kts 82°
2026-04-20 20:08 -5.78115 115.29664 34831 ft 454 kts 82°
2026-04-20 20:09 -5.77220 115.35940 34830 ft 454 kts 82°
2026-04-20 20:09 -5.76324 115.42226 34832 ft 455 kts 82°
2026-04-20 20:10 -5.75426 115.48515 34828 ft 455 kts 82°
2026-04-20 20:10 -5.74679 115.53743 34829 ft 455 kts 82°
2026-04-20 20:11 -5.73780 115.60038 34831 ft 456 kts 82°
2026-04-20 20:11 -5.72879 115.66335 34828 ft 456 kts 82°
2026-04-20 20:12 -5.71976 115.72641 34830 ft 456 kts 82°
2026-04-20 20:12 -5.71072 115.78948 34831 ft 457 kts 82°
2026-04-20 20:13 -5.69714 115.88416 34831 ft 457 kts 82°
2026-04-20 20:13 -5.68807 115.94734 34829 ft 457 kts 82°
2026-04-20 20:14 -5.67899 116.01049 34830 ft 457 kts 82°
2026-04-20 20:14 -5.66991 116.07362 34827 ft 457 kts 82°
2026-04-20 20:15 -5.66083 116.13676 34831 ft 457 kts 82°
2026-04-20 20:15 -5.65174 116.19982 34830 ft 457 kts 82°
2026-04-20 20:16 -5.64265 116.26291 34831 ft 457 kts 82°
2026-04-20 20:16 -5.63355 116.32601 34831 ft 456 kts 82°
2026-04-20 20:17 -5.62445 116.38903 34830 ft 456 kts 82°
2026-04-20 20:17 -5.61534 116.45206 34830 ft 456 kts 82°
2026-04-20 20:18 -5.60623 116.51509 34834 ft 456 kts 82°
2026-04-20 20:18 -5.59712 116.57805 34832 ft 456 kts 82°
2026-04-20 20:19 -5.58800 116.64105 34837 ft 456 kts 82°
2026-04-20 20:19 -5.57886 116.70413 34835 ft 457 kts 82°
2026-04-20 20:20 -5.56971 116.76718 34836 ft 457 kts 82°
2026-04-20 20:20 -5.56055 116.83028 34835 ft 457 kts 82°
2026-04-20 20:21 -5.55139 116.89340 34833 ft 457 kts 82°
2026-04-20 20:21 -5.54220 116.95657 34835 ft 458 kts 82°
2026-04-20 20:22 -5.53307 117.01941 34832 ft 458 kts 82°
2026-04-20 20:22 -5.52336 117.08258 34829 ft 458 kts 79°
2026-04-20 20:23 -5.50891 117.14534 34838 ft 459 kts 76°
2026-04-20 20:23 -5.49319 117.20734 34836 ft 459 kts 76°
2026-04-20 20:24 -5.47775 117.26947 34832 ft 459 kts 77°
2026-04-20 20:24 -5.46279 117.33124 34833 ft 458 kts 77°
2026-04-20 20:25 -5.44787 117.39336 34833 ft 458 kts 77°
2026-04-20 20:25 -5.43298 117.45545 34832 ft 457 kts 77°
2026-04-20 20:26 -5.41808 117.51749 34837 ft 457 kts 77°
2026-04-20 20:26 -5.40317 117.57949 34834 ft 456 kts 77°
2026-04-20 20:27 -5.38830 117.64127 34833 ft 456 kts 77°
2026-04-20 20:27 -5.37342 117.70310 34833 ft 455 kts 77°
2026-04-20 20:28 -5.35856 117.76481 34836 ft 455 kts 77°
2026-04-20 20:28 -5.34370 117.82646 34835 ft 454 kts 77°
2026-04-20 20:29 -5.32884 117.88813 34490 ft 461 kts 77°
2026-04-20 20:29 -5.32122 117.91974 33827 ft 466 kts 77°
2026-04-20 20:29 -5.31361 117.95130 33002 ft 467 kts 77°
2026-04-20 20:30 -5.30603 117.98269 32220 ft 467 kts 77°
2026-04-20 20:30 -5.29836 118.01448 31673 ft 462 kts 77°
2026-04-20 20:30 -5.29083 118.04569 31088 ft 458 kts 77°
2026-04-20 20:30 -5.28337 118.07658 30517 ft 454 kts 77°
2026-04-20 20:31 -5.27594 118.10732 29956 ft 451 kts 77°
2026-04-20 20:31 -5.26857 118.13782 29325 ft 448 kts 77°
2026-04-20 20:31 -5.26128 118.16803 28742 ft 444 kts 77°
2026-04-20 20:31 -5.25404 118.19798 28177 ft 439 kts 77°
2026-04-20 20:32 -5.24684 118.22775 27628 ft 435 kts 77°
2026-04-20 20:32 -5.23973 118.25714 27092 ft 432 kts 77°
2026-04-20 20:32 -5.23270 118.28624 26566 ft 428 kts 77°
2026-04-20 20:32 -5.22570 118.31516 26035 ft 425 kts 77°
2026-04-20 20:33 -5.21875 118.34389 25506 ft 423 kts 77°
2026-04-20 20:33 -5.21183 118.37251 24968 ft 421 kts 77°
2026-04-20 20:33 -5.20494 118.40098 24438 ft 419 kts 77°
2026-04-20 20:33 -5.19808 118.42934 23910 ft 418 kts 77°
2026-04-20 20:34 -5.19123 118.45764 23381 ft 417 kts 77°
2026-04-20 20:34 -5.18438 118.48590 22770 ft 416 kts 77°
2026-04-20 20:34 -5.17759 118.51396 22237 ft 412 kts 77°
2026-04-20 20:34 -5.17083 118.54183 21711 ft 409 kts 77°
2026-04-20 20:35 -5.16414 118.56944 21186 ft 406 kts 77°
2026-04-20 20:35 -5.15758 118.59650 20695 ft 403 kts 77°
2026-04-20 20:35 -5.15099 118.62371 20188 ft 400 kts 77°
2026-04-20 20:35 -5.14442 118.65083 19678 ft 398 kts 77°
2026-04-20 20:36 -5.13789 118.67772 19168 ft 396 kts 77°
2026-04-20 20:36 -5.13140 118.70450 18668 ft 394 kts 77°
2026-04-20 20:36 -5.12494 118.73114 18169 ft 392 kts 77°
2026-04-20 20:36 -5.11852 118.75762 17609 ft 390 kts 77°
2026-04-20 20:37 -5.11214 118.78392 17093 ft 386 kts 77°
2026-04-20 20:37 -5.10582 118.80995 16595 ft 383 kts 77°
2026-04-20 20:37 -5.09955 118.83578 16106 ft 379 kts 77°
2026-04-20 20:37 -5.09333 118.86138 15624 ft 376 kts 77°
2026-04-20 20:38 -5.08716 118.88677 15147 ft 373 kts 77°
2026-04-20 20:38 -5.08103 118.91201 14656 ft 372 kts 77°
2026-04-20 20:38 -5.07493 118.93712 14176 ft 369 kts 77°
2026-04-20 20:38 -5.06886 118.96211 13693 ft 368 kts 77°
2026-04-20 20:39 -5.06282 118.98697 13164 ft 366 kts 77°
2026-04-20 20:39 -5.05682 119.01168 12676 ft 363 kts 77°
2026-04-20 20:39 -5.05086 119.03618 12198 ft 360 kts 77°
2026-04-20 20:39 -5.04496 119.06045 11738 ft 357 kts 77°
2026-04-20 20:40 -5.03914 119.08436 11399 ft 350 kts 76°
2026-04-20 20:40 -5.03340 119.10798 10951 ft 347 kts 76°
2026-04-20 20:40 -5.02770 119.13142 10505 ft 345 kts 76°
2026-04-20 20:40 -5.02210 119.15444 10343 ft 334 kts 76°
2026-04-20 20:41 -5.01668 119.17671 10164 ft 324 kts 76°
2026-04-20 20:41 -5.01142 119.19829 10027 ft 313 kts 76°
2026-04-20 20:41 -5.00635 119.21914 9927 ft 301 kts 76°
2026-04-20 20:41 -5.00144 119.23929 9480 ft 303 kts 76°
2026-04-20 20:42 -4.99646 119.25975 9050 ft 300 kts 76°
2026-04-20 20:42 -4.99158 119.27981 8658 ft 292 kts 76°
2026-04-20 20:42 -4.98683 119.29932 8297 ft 284 kts 76°
2026-04-20 20:42 -4.98219 119.31838 7970 ft 280 kts 76°
2026-04-20 20:43 -4.97758 119.33732 7641 ft 279 kts 76°
2026-04-20 20:43 -4.97298 119.35619 7311 ft 278 kts 76°
2026-04-20 20:43 -4.96840 119.37499 6988 ft 278 kts 76°
2026-04-20 20:43 -4.96381 119.39382 6657 ft 277 kts 76°
2026-04-20 20:44 -4.95924 119.41258 6320 ft 277 kts 76°
2026-04-20 20:44 -4.95466 119.43134 5965 ft 277 kts 76°
2026-04-20 20:44 -4.95009 119.45009 5622 ft 276 kts 76°
2026-04-20 20:44 -4.94554 119.46875 5275 ft 276 kts 76°
2026-04-20 20:45 -4.94099 119.48743 4947 ft 275 kts 76°
2026-04-20 20:45 -4.93651 119.50581 4651 ft 266 kts 76°
2026-04-20 20:45 -4.93225 119.52328 4509 ft 251 kts 76°
2026-04-20 20:45 -4.92823 119.53979 4375 ft 237 kts 76°
2026-04-20 20:46 -4.92439 119.55549 4259 ft 227 kts 76°
2026-04-20 20:46 -4.92071 119.57059 4168 ft 220 kts 76°
2026-04-20 20:46 -4.91707 119.58550 4010 ft 222 kts 76°
2026-04-20 20:46 -4.91341 119.60046 3789 ft 217 kts 76°
2026-04-20 20:47 -4.91225 119.61496 3488 ft 211 kts 104°
2026-04-20 20:47 -4.92021 119.62651 3233 ft 202 kts 148°
2026-04-20 20:47 -4.93354 119.62891 2934 ft 198 kts 193°
2026-04-20 20:47 -4.94646 119.62462 2703 ft 196 kts 197°
2026-04-20 20:48 -4.95920 119.61999 2454 ft 193 kts 202°
2026-04-20 20:48 -4.97127 119.61408 2201 ft 192 kts 208°
2026-04-20 20:48 -4.98286 119.60749 1961 ft 191 kts 210°
2026-04-20 20:48 -4.99427 119.60084 1714 ft 187 kts 210°
2026-04-20 20:49 -5.00534 119.59441 1491 ft 181 kts 210°
2026-04-20 20:49 -5.01589 119.58828 1283 ft 166 kts 210°
2026-04-20 20:49 -5.02562 119.58263 1030 ft 160 kts 210°
2026-04-20 20:49 -5.03529 119.57702 817 ft 161 kts 210°
2026-04-20 20:50 -5.04489 119.57145 604 ft 158 kts 210°
2026-04-20 20:50 -5.05429 119.56592 374 ft 155 kts 210°
2026-04-20 20:50 -5.06359 119.56062 160 ft 153 kts 209°
2026-04-20 20:50 -5.07265 119.55538 40 ft 143 kts 210°
2026-04-20 20:51 -5.07957 119.55138 39 ft 84 kts 210°
2026-04-20 20:51 -5.08141 119.55001 39 ft 23 kts 261°
2026-04-20 20:51 -5.08092 119.54889 40 ft 17 kts 300°
2026-04-20 20:51 -5.08034 119.54788 40 ft 16 kts 300°
2026-04-20 20:52 -5.07946 119.54740 40 ft 16 kts 13°
2026-04-20 20:52 -5.07852 119.54793 40 ft 15 kts 31°
2026-04-20 20:52 -5.07764 119.54847 40 ft 15 kts 30°
2026-04-20 20:52 -5.07681 119.54835 40 ft 14 kts 304°
2026-04-20 20:53 -5.07660 119.54798 40 ft 0 kts 299°
2026-04-20 20:53 -5.07658 119.54795 40 ft 0 kts 299°